Weather History for Akron, OH

Change the Weather History Date:

Monday, February 18, 2013

  Actual Average (KCAK) Record (KCAK)
Temperature  
Mean Temperature 26 °F 30 °F  
Max Temperature 46 °F 37 °F 60 °F (1981)
Min Temperature 8 °F 22 °F -8 °F (1936)
Degree Days  
Heating Degree Days 38 35  
Month to date heating degree days 667  
Since 1 July heating degree days 4203  
Cooling Degree Days 0 0  
Month to date cooling degree days 0  
Year to date cooling degree days 0  
Moisture  
Dew Point 15 °F    
Average Humidity 61    
Maximum Humidity 83    
Minimum Humidity 46    
Precipitation  
Precipitation 0.01 in 0.08 in 0.76 in (1976)
Month to date precipitation 1.46  
Year to date precipitation 4.07  
Snow  
Snow 0.00 in 0.40 in - ()
Month to date snowfall 6.6  
Since 1 July snowfall 32.6  
Snow Depth -    
Sea Level Pressure  
Sea Level Pressure 30.09 in    
Wind  
Wind Speed 5 mph (South)    
Max Wind Speed 16 mph    
Max Gust Speed 24 mph    
Visibility 10 miles    
Events      
T = Trace of Precipitation, MM = Missing Value Source: NWS Daily Summary

Daily Weather History Graph

Daily Weather History Graph

Search for Another Location

Airport:

Trip Planner

Search our weather history database for the weather conditions in past years. The results will help you decide how hot, cold, wet, or windy it might be!

Date:

Astronomy

Feb. 18, 2013 Rise Set
Actual Time 7:15 AM EST 6:04 PM EST
Civil Twilight 6:47 AM EST 6:32 PM EST
Nautical Twilight 6:15 AM EST 7:04 PM EST
Astronomical Twilight 5:43 AM EST 7:36 PM EST
Moon 11:47 AM EST (2/18) 1:55 AM EST (2/18)
Length of Visible Light 11h 44m
Length of Day
10h 48m
First Quarter, 58% of the Moon is Illuminated
Feb 18
First Quarter
Feb 25
Full
Mar 4
Last Quarter
Mar 11
New
Mar 19
First Quarter

Hourly Weather History & Observations

Time (EST) Temp. Windchill Dew Point Humidity Pressure Visibility Wind Dir Wind Speed Gust Speed Precip Events Conditions
12:54 AM 8.1 °F - 3.0 °F 80% 30.28 in 10.0 mi Calm Calm - N/A   Clear
1:54 AM 8.1 °F - 3.0 °F 80% 30.28 in 10.0 mi Calm Calm - N/A   Clear
2:54 AM 8.1 °F - 3.9 °F 83% 30.28 in 10.0 mi Calm Calm - N/A   Clear
3:54 AM 10.9 °F - 6.1 °F 81% 30.27 in 10.0 mi Calm Calm - N/A   Clear
4:54 AM 10.9 °F - 6.1 °F 81% 30.27 in 10.0 mi Calm Calm - N/A   Clear
5:54 AM 12.0 °F 5.9 °F 6.1 °F 77% 30.27 in 10.0 mi South 3.5 mph - N/A   Clear
6:54 AM 12.0 °F 4.1 °F 6.1 °F 77% 30.26 in 10.0 mi SSE 4.6 mph - N/A   Clear
7:54 AM 12.9 °F 2.6 °F 6.1 °F 74% 30.25 in 10.0 mi South 6.9 mph - N/A   Clear
8:54 AM 19.9 °F 7.3 °F 9.0 °F 62% 30.25 in 10.0 mi South 12.7 mph 18.4 mph N/A   Scattered Clouds
9:54 AM 21.9 °F 9.8 °F 9.0 °F 58% 30.22 in 10.0 mi South 12.7 mph 20.7 mph N/A   Overcast
10:54 AM 25.0 °F 14.8 °F 10.0 °F 53% 30.18 in 10.0 mi South 10.4 mph 18.4 mph N/A   Clear
11:54 AM 28.9 °F 21.9 °F 12.9 °F 51% 30.15 in 10.0 mi Variable 6.9 mph - 0.01 in   Clear
12:54 PM 33.1 °F 24.9 °F 15.1 °F 48% 30.10 in 10.0 mi SSE 10.4 mph - N/A   Clear
1:54 PM 37.0 °F 29.8 °F 18.0 °F 46% 30.04 in 10.0 mi South 10.4 mph 19.6 mph N/A   Clear
2:54 PM 39.9 °F 32.1 °F 21.0 °F 47% 30.03 in 10.0 mi South 13.8 mph 20.7 mph N/A   Clear
3:54 PM 41.0 °F 33.9 °F 21.9 °F 47% 30.01 in 10.0 mi South 12.7 mph 20.7 mph N/A   Clear
4:54 PM 42.1 °F 37.1 °F 24.1 °F 49% 29.99 in 10.0 mi South 8.1 mph 19.6 mph N/A   Clear
5:54 PM 41.0 °F 37.1 °F 23.0 °F 49% 29.96 in 10.0 mi SSE 5.8 mph - N/A   Clear
6:54 PM 41.0 °F 35.8 °F 24.1 °F 51% 29.94 in 10.0 mi South 8.1 mph - N/A   Clear
7:54 PM 41.0 °F 35.8 °F 25.0 °F 53% 29.92 in 10.0 mi SSE 8.1 mph - N/A   Clear
8:54 PM 42.1 °F 36.1 °F 26.1 °F 53% 29.88 in 10.0 mi South 10.4 mph - N/A   Partly Cloudy
9:54 PM 44.1 °F 37.4 °F 28.0 °F 53% 29.85 in 10.0 mi South 13.8 mph 24.2 mph N/A   Overcast
10:54 PM 45.0 °F 37.9 °F 28.9 °F 53% 29.82 in 10.0 mi South 16.1 mph 21.9 mph N/A   Overcast
11:54 PM 46.0 °F 40.2 °F 28.9 °F 51% 29.77 in 10.0 mi South 12.7 mph 21.9 mph N/A   Scattered Clouds